Tracking 28052 objects as of 22-Sep-2023
HD Live streaming from Space Station
objects crossing your sky now

DELTA 1 DEB

Track DELTA 1 DEB now!
10-day predictions


NORAD ID: 40768
Int'l Code: 1976-077GM
Perigee: 1,379.7 km
Apogee: 1,456.9 km
Inclination: 101.3 °
Period: 114.0 minutes
Semi major axis: 7789 km
RCS: Unknown
Launch date: July 29, 1976
Source: United States (US)
Launch site: AIR FORCE WESTERN TEST RANGE (AFWTR)

Note: This is SATELLITE DEBRIS
Your satellite tracking list
Your tracking list is empty




NASA's NSSDC Master Catalog

Two Line Element Set (TLE):
1 40768U 76077GM  23264.22294657  .00000551  00000-0  32816-2 0  9999
2 40768 101.3141 253.7997 0049539 235.5858 124.0533 12.62862966452755
Source of the keplerian elements: AFSPC